Overview Statistics Trail Chart Weather Telemetry Raw packets
 

This is the latest recevied weather packets stored in our database for station/object GBTWP-2. If no packets are shown the sender has not sent any weather packets the latest 10 day(s).

<< 57 58 59 60 61 62 63 >>
Time Temp. Humidity Pressure Rain* Wind** Luminosity Snow
1788291120 31.67° C 65% 1017.1 hPa 0 mm - 263 W/m² -
1788290820 31.67° C 65% 1017.2 hPa 0 mm - 523 W/m² -
1788290518 31.67° C 66% 1017.2 hPa 0 mm - 246 W/m² -
1788290221 31.67° C 65% 1017.2 hPa 0 mm - 551 W/m² -
1788289920 31.11° C 68% 1017.4 hPa 0 mm - 561 W/m² -
1788289621 31.11° C 69% 1017.4 hPa 0 mm - 140 W/m² -
1788289320 31.11° C 69% 1017.4 hPa 0 mm - 156 W/m² -
1788289019 31.11° C 69% 1017.3 hPa 0 mm - 158 W/m² -
1788288720 31.11° C 67% 1017.3 hPa 0 mm - 619 W/m² -
1788288420 31.11° C 67% 1017.2 hPa 0 mm - 622 W/m² -
1788288120 31.67° C 68% 1017.1 hPa 0 mm - 561 W/m² -
1788287820 31.11° C 68% 1017.2 hPa 0 mm - 169 W/m² -
1788287520 31.11° C 69% 1017.2 hPa 0 mm - 233 W/m² -
1788287220 31.67° C 66% 1017.1 hPa 0 mm - 230 W/m² -
1788286920 31.67° C 68% 1017 hPa 0 mm - 201 W/m² -
1788286620 31.67° C 66% 1017.1 hPa 0 mm - 571 W/m² -
1788286320 31.11° C 70% 1016.9 hPa 0 mm - 278 W/m² -
1788286020 31.11° C 71% 1017 hPa 0 mm - 634 W/m² -
1788285720 31.11° C 70% 1017.1 hPa 0 mm - 564 W/m² -
1788285418 30.56° C 70% 1016.9 hPa 0 mm - 694 W/m² -
1788285118 30.56° C 71% 1017.1 hPa 0 mm - 252 W/m² -
1788284820 31.11° C 70% 1017.1 hPa 0 mm - 552 W/m² -
1788284520 30.56° C 70% 1017.2 hPa 0 mm - 200 W/m² -
1788284220 30.56° C 72% 1017.3 hPa 0 mm - 107 W/m² -
1788283920 31.11° C 71% 1017.3 hPa 0 mm - 210 W/m² -

* Rain latest hour (hover to see other rain measurements)
** Current wind speed in m/s (hover to see current wind gust speed)